Regional Weather Roundup
Issued by NWS Albany, NY

Home | Current Version | Previous Version | Text Only | Print | Product List | Glossary On
Versions: 1 2 3 4 5 6 7 8 9 10 11 12 13 14 15 16 17 18 19 20 21 22 23 24 25 26 27
000
ASUS41 KALY 261310
RWRALY

NEW YORK STATE HOURLY WEATHER ROUNDUP
NATIONAL WEATHER SERVICE ALBANY NY
900 AM EDT THU MAY 26 2016

NOTE: "FAIR" INDICATES FEW OR NO CLOUDS BELOW 12,000 FEET WITH NO
SIGNIFICANT WEATHER AND/OR NO OBSTRUCTIONS TO VISIBILITY.

NYZ032-033-038>043-046>054-057>066-NYZ062>081-082-084-261400-
EAST


CITY           SKY/WX    TMP DP  RH WIND       PRES   REMARKS
ALBANY         PTSUNNY   69  56  62 N7        30.13F
GLENS FALLS    MOSUNNY   68  53  58 NE6       30.13F
POUGHKEEPSIE   MOSUNNY   72  57  59 CALM      30.10F
NEWBURGH       SUNNY     73  57  56 CALM      30.12F
MONTGOMERY     SUNNY     73  58  59 CALM      30.11F
WHITE PLAINS   SUNNY     77  55  46 CALM      30.11S
ISLIP          MOSUNNY   76  56  49 CALM      30.11S
NEW YORK CITY  PTSUNNY   78  57  48 NW5       30.10F
CENTRAL PARK   SUNNY     76  50  40 W5        30.14S
$$

NYZ005>009-017-018-044>046-055-056-261400-
CENTRAL


CITY           SKY/WX    TMP DP  RH WIND       PRES   REMARKS
FULTON         MOSUNNY   72  59  63 VRB3      30.09S
SYRACUSE       CLOUDY    69  58  67 NE3       30.08F
ROME           CLOUDY    68  59  73 SE6       30.11F
ELMIRA         CLOUDY    65  55  70 CALM      30.12F
BINGHAMTON     PTSUNNY   68  56  65 SE3       30.14F
MONTICELLO     CLOUDY    70  57  64 CALM      30.17S
$$

NYZ026>034-041>043-087-261400-
NORTH


CITY           SKY/WX    TMP DP  RH WIND       PRES   REMARKS
WATERTOWN      CLOUDY    68  58  70 CALM      30.08
FORT DRUM      NOT AVBL
MASSENA        SUNNY     65  51  60 NE10      30.14S
SARANAC LAKE   SUNNY     65  47  52 CALM      30.14S
PLATTSBURGH    MOSUNNY   64  48  56 NE9       30.15S
$$

NYZ001>004-010>016-019>021-085-261400-
WEST


CITY           SKY/WX    TMP DP  RH WIND       PRES   REMARKS
NIAGARA FALLS  CLOUDY    73  57  57 S7        30.03F
BUFFALO        LGT RAIN  70  58  65 S10       30.05F
DUNKIRK        CLOUDY    74  57  55 S9        30.04F
JAMESTOWN      MOSUNNY   66  55  68 S8        30.10F
WELLSVILLE     MOSUNNY   70  57  63 SE5       30.15F
ROCHESTER      CLOUDY    70  56  61 SW6       30.07F
PENN YAN       MOSUNNY   68  54  60 SW5       30.10F
$$

             KEY
       WCI = WIND CHILL INDEX
       VSB = VISIBILITY
       HX  = HEAT INDEX
$$




USA.gov is the U.S. government's official web portal to all federal, state and local government web resources and services.